This demonstration page uses our WeatherBlox Daily Observations layout. Learn more.

Hourly Observations for August 17, 2017

Temp ( °F °C ) Dew Point ( °F °C ) Humidity (%) Winds ( mph kmh ) Pressure ( in mb ) Visibility ( mi km ) Precip ( " mm )
12:15 am 00:15 Clear 60 15.7 57 14 90 90 WNW 6 9 29.91 1013 10 16.09344 0 0
12:35 am 00:35 Clear 59 15.1 56 13.5 90 90 WNW 5 7 29.94 1014 10 16.09344 0 0
12:55 am 00:55 Clear 59 15.1 56 13.5 90 90 WNW 5 7 29.94 1014 10 16.09344 0 0
1:15 am 01:15 Clear 60 15.6 56 13.6 88 88 W 6 9 29.97 1015 10 16.09344 0 0
1:35 am 01:35 Clear 60 15.5 56 13.3 87 87 WNW 6 9 29.97 1015 10 16.09344 0 0
1:55 am 01:55 Clear 58 14.7 56 13.1 90 90 W 7 11 29.97 1015 10 16.09344 0 0
2:15 am 02:15 Clear 59 14.8 55 13 89 89 W 7 11 29.97 1015 10 16.09344 0 0
2:35 am 02:35 Clear 59 14.9 55 12.7 87 87 W 7 11 29.97 1015 10 16.09344 0 0
2:55 am 02:55 Clear 58 14.4 55 12.5 88 88 W 6 9 29.97 1015 10 16.09344 0 0
3:15 am 03:15 Clear 58 14.5 55 12.5 88 88 W 6 9 29.97 1015 10 16.09344 0 0
3:35 am 03:35 Clear 58 14.3 54 12.3 88 88 W 8 13 29.97 1015 10 16.09344 0 0
3:55 am 03:55 Clear 57 13.8 54 12.1 90 90 WNW 6 9 29.97 1015 10 16.09344 0 0
4:15 am 04:15 Clear 57 14.1 53 11.8 86 86 WNW 7 11 29.97 1015 10 16.09344 0 0
4:35 am 04:35 Clear 56 13.2 53 11.5 90 90 WNW 5 7 29.97 1015 10 16.09344 0 0
4:55 am 04:55 Clear 55 13 52 11.3 90 90 WNW 6 9 29.97 1015 10 16.09344 0 0
5:15 am 05:15 Clear 55 12.5 52 11 91 91 W 6 9 30 1016 10 16.09344 0 0
5:35 am 05:35 Clear 55 13 52 11.2 89 89 W 5 7 30 1016 10 16.09344 0 0
5:55 am 05:55 Clear 55 13 53 11.4 90 90 WSW 3 6 30 1016 10 16.09344 0 0
6:15 am 06:15 Clear 55 13 52 11.2 89 89 WSW 5 7 30 1016 10 16.09344 0 0
6:35 am 06:35 Clear 55 12.8 52 11.1 90 90 SW 3 6 30.06 1018 10 16.09344 0 0
6:55 am 06:55 Sunny 55 13 53 11.4 90 90 W 3 6 30.06 1018 10 16.09344 0 0
7:15 am 07:15 Sunny 55 13 52 11.1 88 88 W 5 7 30 1016 10 16.09344 0 0
7:35 am 07:35 Sunny 56 13.3 53 11.6 90 90 W 6 9 30.03 1017 10 16.09344 0 0
7:55 am 07:55 Sunny 59 15.1 53 11.9 81 81 W 7 11 30.03 1017 10 16.09344 0 0
8:15 am 08:15 Sunny 60 15.7 55 12.7 82 82 Calm 30.03 1017 10 16.09344 0 0
8:35 am 08:35 Sunny 62 16.4 55 13 80 80 Calm 30.03 1017 10 16.09344 0 0
8:55 am 08:55 Sunny 64 17.5 57 13.8 79 79 Calm 30 1016 10 16.09344 0 0
9:15 am 09:15 Sunny 66 19.1 57 14.1 73 73 W 3 6 30 1016 10 16.09344 0 0
9:35 am 09:35 Sunny 69 20.5 56 13.4 64 64 W 3 6 29.97 1015 10 16.09344 0 0
9:55 am 09:55 Sunny 70 21.2 56 13.4 61 61 WSW 6 9 29.97 1015 10 16.09344 0 0
10:15 am 10:15 Sunny 71 21.5 57 14.1 63 63 W 7 11 29.97 1015 10 16.09344 0 0
10:35 am 10:35 Sunny 71 21.7 57 14 62 62 W 10 17 29.97 1015 10 16.09344 0 0
10:55 am 10:55 Sunny 71 21.7 60 15.4 68 68 WSW 9 15 29.97 1015 10 16.09344 0 0
11:15 am 11:15 Sunny 72 22 60 15.7 68 68 W 12 19 29.97 1015 10 16.09344 0 0
11:35 am 11:35 Sunny 73 22.6 60 15.3 64 64 W 13 20 29.97 1015 10 16.09344 0 0
11:55 am 11:55 Sunny 74 23.6 60 15.5 61 61 W 14 22 29.97 1015 10 16.09344 0 0
12:15 pm 12:15 Sunny 76 24.2 59 15.1 57 57 W 12 19 29.94 1014 10 16.09344 0 0
12:35 pm 12:35 Sunny 76 24.6 58 14.7 54 54 WSW 9 15 29.94 1014 10 16.09344 0 0
12:55 pm 12:55 Sunny 77 25.2 59 15.2 54 54 WSW 9 15 29.94 1014 10 16.09344 0 0
1:15 pm 13:15 Sunny 78 25.7 60 15.3 53 53 W 9 15 29.91 1013 10 16.09344 0 0
1:35 pm 13:35 Sunny 78 25.7 57 13.9 48 48 WSW 10 17 29.91 1013 10 16.09344 0 0
1:55 pm 13:55 Sunny 79 26.1 56 13.5 46 46 W 6 9 29.91 1013 10 16.09344 0 0
2:15 pm 14:15 Sunny 80 26.6 56 13.4 44 44 SW 7 11 29.91 1013 10 16.09344 0 0
2:35 pm 14:35 Sunny 81 27.1 59 14.8 47 47 SW 7 11 29.88 1012 10 16.09344 0 0
2:55 pm 14:55 Sunny 81 27.4 59 14.8 46 46 WSW 6 9 29.88 1012 10 16.09344 0 0
3:15 pm 15:15 Sunny 82 28 57 13.7 41 41 SSW 7 11 29.85 1011 10 16.09344 0 0
3:35 pm 15:35 Sunny 82 27.8 58 14.2 43 43 SW 8 13 29.85 1011 10 16.09344 0 0
3:55 pm 15:55 Sunny 83 28.3 56 13.3 40 40 SW 8 13 29.85 1011 10 16.09344 0 0
4:15 pm 16:15 Sunny 83 28.5 53 11.4 35 35 SSW 8 13 29.85 1011 10 16.09344 0 0
4:35 pm 16:35 Sunny 84 28.7 55 12.6 37 37 SW 6 9 29.85 1011 10 16.09344 0 0
4:55 pm 16:55 Sunny 84 28.7 53 11.9 35 35 SSW 7 11 29.85 1011 10 16.09344 0 0
5:15 pm 17:15 Sunny 84 28.7 54 12.1 36 36 S 7 11 29.85 1011 10 16.09344 0 0
5:35 pm 17:35 Sunny 84 28.7 55 12.7 37 37 S 6 9 29.83 1010 10 16.09344 0 0
5:55 pm 17:55 Sunny 83 28.5 54 12.3 37 37 S 6 9 29.83 1010 10 16.09344 0 0
6:15 pm 18:15 Sunny 83 28.2 55 12.8 39 39 S 5 7 29.83 1010 10 16.09344 0 0
6:35 pm 18:35 Sunny 82 28 59 15 45 45 SSE 5 7 29.83 1010 10 16.09344 0 0
6:55 pm 18:55 Sunny 82 27.5 60 15.6 48 48 SSE 5 7 29.83 1010 10 16.09344 0 0
7:15 pm 19:15 Sunny 80 26.9 62 16.5 53 53 SSE 6 9 29.83 1010 10 16.09344 0 0
7:35 pm 19:35 Sunny 78 25.6 63 17.3 60 60 SSE 6 9 29.85 1011 10 16.09344 0 0
7:55 pm 19:55 Sunny 74 23.6 63 17.3 68 68 SE 7 11 29.83 1010 10 16.09344 0 0
8:15 pm 20:15 Sunny 73 22.5 63 17 71 71 SE 7 11 29.83 1010 10 16.09344 0 0
8:35 pm 20:35 Clear 71 21.4 63 17 76 76 SE 7 11 29.85 1011 10 16.09344 0 0
8:55 pm 20:55 Clear 70 21 61 16 73 73 SSE 6 9 29.85 1011 10 16.09344 0 0
9:15 pm 21:15 Clear 70 21.3 59 15 67 67 SSE 8 13 29.85 1011 10 16.09344 0 0
9:35 pm 21:35 Clear 71 21.5 58 14.2 63 63 SSE 8 13 29.85 1011 10 16.09344 0 0
9:55 pm 21:55 Clear 70 21 57 14 64 64 SSE 8 13 29.85 1011 10 16.09344 0 0
10:15 pm 22:15 Clear 70 21.1 57 13.8 63 63 SSE 10 17 29.85 1011 10 16.09344 0 0
10:35 pm 22:35 Clear 71 21.5 57 13.7 61 61 SSE 10 17 29.85 1011 10 16.09344 0 0
10:55 pm 22:55 Clear 71 21.7 56 13.6 60 60 S 13 20 29.85 1011 10 16.09344 0 0
11:15 pm 23:15 Clear 71 21.5 56 13.6 61 61 SSE 9 15 29.85 1011 10 16.09344 0 0
11:35 pm 23:35 Clear 70 20.9 56 13.6 63 63 SSE 9 15 29.85 1011 10 16.09344 0 0
11:55 pm 23:55 Clear 69 20.6 56 13.5 64 64 SSE 7 11 29.85 1011 10 16.09344 0 0

Powered by AerisWeather